Location: Grange Rosano
(44.4500°N, 6.9667°E)
Time: 09:42:24
(UTC+00:00)

ADEOS II - Pass Details

Date: 04 October 2022
Orbit: 799 x 800 km, 98.6° (Epoch: 01 December)

Event Time Altitude Azimuth Distance (km) Brightness Sun altitude
Rises 03:05:29 0° 1° (N) 3,319 5.6 -26.7°
Reaches altitude 10° 03:08:23 10° 345° (NNW) 2,384 4.6 -26.2°
Enters shadow 03:09:52 16° 331° (NNW) 2,017 4.1 -26.0°
